EN

Hourly Weather Altuhov

Today, 20 January, Wednesday

Time Temperature Precipitation Wind Pressure Humidity
00:00 -7°C° 0 mm 2 mps 746 mmHg 84%
01:00 -7°C° 0 mm 2 mps 746 mmHg 86%
02:00 -7°C° 0 mm 2 mps 746 mmHg 88%
03:00 -7°C° 0 mm 2 mps 746 mmHg 92%
04:00 -6°C° 0.2 mm 1 mps 746 mmHg 92%
05:00 -6°C° 0.2 mm 1 mps 746 mmHg 92%
06:00 -6°C° 0.2 mm 1 mps 747 mmHg 92%
07:00 -6°C° 0.2 mm 1 mps 747 mmHg 92%
08:00 -7°C° 0.2 mm 2 mps 747 mmHg 92%
09:00 -7°C° 0.2 mm 2 mps 747 mmHg 91%
10:00 -7°C° 0.1 mm 2 mps 748 mmHg 88%
11:00 -6°C° 0.1 mm 2 mps 748 mmHg 84%
12:00 -6°C° 0.1 mm 2 mps 748 mmHg 81%
13:00 -6°C° 0 mm 2 mps 748 mmHg 82%
14:00 -6°C° 0 mm 2 mps 748 mmHg 83%
15:00 -6°C° 0 mm 2 mps 748 mmHg 84%
16:00 -6°C° 0.1 mm 2 mps 748 mmHg 86%
17:00 -7°C° 0.1 mm 2 mps 749 mmHg 88%
18:00 -8°C° 0.1 mm 2 mps 750 mmHg 90%
19:00 -8°C° 0 mm 2 mps 750 mmHg 92%
20:00 -7°C° 0 mm 1 mps 750 mmHg 93%
21:00 -8°C° 0 mm 1 mps 750 mmHg 94%
22:00 -8°C° 0 mm 0 mps 750 mmHg 94%
23:00 -8°C° 0 mm 0 mps 751 mmHg 95%

Tomorrow, 21 January, Thursday

Time Temperature Precipitation Wind Pressure Humidity
00:00 -9°C° 0 mm 0 mps 751 mmHg 95%
01:00 -9°C° 0 mm 0 mps 751 mmHg 95%
02:00 -9°C° 0 mm 0 mps 751 mmHg 94%
03:00 -9°C° 0 mm 0 mps 751 mmHg 94%
04:00 -9°C° 0 mm 0 mps 751 mmHg 94%
05:00 -9°C° 0 mm 0 mps 752 mmHg 94%
06:00 -9°C° 0 mm 0 mps 752 mmHg 94%
07:00 -9°C° 0 mm 0 mps 752 mmHg 92%
08:00 -9°C° 0 mm 0 mps 753 mmHg 90%
09:00 -8°C° 0 mm 0 mps 753 mmHg 89%
10:00 -7°C° 0 mm 1 mps 753 mmHg 83%
11:00 -6°C° 0 mm 1 mps 753 mmHg 77%
12:00 -5°C° 0 mm 2 mps 753 mmHg 72%
13:00 -5°C° 0 mm 2 mps 753 mmHg 72%
14:00 -4°C° 0 mm 2 mps 753 mmHg 72%
15:00 -4°C° 0 mm 2 mps 752 mmHg 73%
16:00 -3°C° 0 mm 1 mps 753 mmHg 76%
17:00 -3°C° 0 mm 1 mps 753 mmHg 79%
18:00 -4°C° 0 mm 1 mps 753 mmHg 82%
19:00 -4°C° 0 mm 1 mps 753 mmHg 82%
20:00 -6°C° 0 mm 2 mps 753 mmHg 81%
21:00 -6°C° 0 mm 2 mps 753 mmHg 81%
22:00 -6°C° 0 mm 3 mps 753 mmHg 79%
23:00 -6°C° 0 mm 3 mps 753 mmHg 78%

Day after tomorrow, 22 January, Friday

Time Temperature Precipitation Wind Pressure Humidity
00:00 -6°C° 0 mm 3 mps 753 mmHg 76%
01:00 -5°C° 0 mm 3 mps 752 mmHg 74%
02:00 -5°C° 0 mm 3 mps 752 mmHg 72%
03:00 -4°C° 0 mm 3 mps 752 mmHg 71%
04:00 -4°C° 0 mm 3 mps 752 mmHg 69%
05:00 -4°C° 0 mm 3 mps 752 mmHg 68%
06:00 -4°C° 0 mm 3 mps 752 mmHg 66%
07:00 -3°C° 0 mm 2 mps 752 mmHg 66%
08:00 -2°C° 0 mm 2 mps 752 mmHg 67%
09:00 -2°C° 0 mm 2 mps 752 mmHg 67%
10:00 -1°C° 0 mm 2 mps 752 mmHg 68%
11:00 +2°C° 0 mm 2 mps 752 mmHg 70%
12:00 +4°C° 0 mm 1 mps 752 mmHg 71%
13:00 +4°C° 0 mm 1 mps 752 mmHg 71%
14:00 +4°C° 0 mm 1 mps 751 mmHg 71%
15:00 +4°C° 0 mm 1 mps 751 mmHg 71%
16:00 +3°C° 0 mm 1 mps 751 mmHg 70%
17:00 +2°C° 0 mm 2 mps 751 mmHg 69%
18:00 +1°C° 0 mm 2 mps 751 mmHg 68%
19:00 -1°C° 0 mm 2 mps 751 mmHg 68%
20:00 -1°C° 0 mm 3 mps 751 mmHg 68%
21:00 -1°C° 0 mm 3 mps 751 mmHg 68%
22:00 -1°C° 0 mm 3 mps 751 mmHg 67%
23:00 -1°C° 0 mm 3 mps 751 mmHg 67%

23 January, Saturday

Time Temperature Precipitation Wind Pressure Humidity
00:00 -2°C° 0 mm 3 mps 751 mmHg 66%
01:00 -2°C° 0 mm 3 mps 751 mmHg 67%
02:00 -2°C° 0 mm 3 mps 750 mmHg 68%
03:00 -2°C° 0 mm 3 mps 750 mmHg 69%
04:00 -2°C° 0 mm 3 mps 750 mmHg 70%
05:00 -2°C° 0 mm 3 mps 750 mmHg 72%
06:00 -2°C° 0 mm 3 mps 750 mmHg 73%
07:00 -3°C° 0 mm 4 mps 750 mmHg 73%
08:00 -2°C° 0 mm 4 mps 751 mmHg 73%
09:00 -2°C° 0 mm 5 mps 751 mmHg 72%
10:00 -1°C° 0 mm 5 mps 750 mmHg 68%
11:00 0°C° 0 mm 5 mps 750 mmHg 64%
12:00 +1°C° 0 mm 6 mps 750 mmHg 60%
13:00 +1°C° 0 mm 5 mps 749 mmHg 61%
14:00 +1°C° 0 mm 5 mps 749 mmHg 63%
15:00 +1°C° 0 mm 5 mps 749 mmHg 64%
16:00 0°C° 0 mm 4 mps 749 mmHg 69%
17:00 -1°C° 0 mm 4 mps 749 mmHg 75%
18:00 -2°C° 0 mm 4 mps 749 mmHg 80%
19:00 -2°C° 0 mm 4 mps 749 mmHg 82%
20:00 -2°C° 0 mm 4 mps 749 mmHg 84%
21:00 -2°C° 0 mm 4 mps 749 mmHg 86%
22:00 -2°C° 0 mm 4 mps 749 mmHg 89%
23:00 -3°C° 0 mm 4 mps 749 mmHg 91%

24 January, Sunday

Time Temperature Precipitation Wind Pressure Humidity
00:00 -3°C° 0 mm 4 mps 748 mmHg 93%
01:00 -2°C° 0 mm 3 mps 748 mmHg 94%
02:00 -2°C° 0 mm 3 mps 748 mmHg 95%
03:00 -2°C° 0 mm 3 mps 748 mmHg 96%
04:00 -2°C° 0 mm 2 mps 748 mmHg 96%
05:00 -3°C° 0 mm 2 mps 747 mmHg 97%
06:00 -3°C° 0 mm 2 mps 747 mmHg 97%
07:00 -2°C° 0 mm 3 mps 747 mmHg 96%
08:00 -2°C° 0 mm 3 mps 747 mmHg 96%
09:00 -2°C° 0 mm 3 mps 747 mmHg 95%
10:00 -2°C° 0 mm 3 mps 747 mmHg 94%
11:00 -2°C° 0 mm 3 mps 746 mmHg 93%
12:00 -1°C° 0 mm 3 mps 746 mmHg 92%
13:00 -1°C° 0 mm 3 mps 745 mmHg 91%
14:00 -1°C° 0 mm 3 mps 745 mmHg 89%
15:00 -1°C° 0 mm 3 mps 745 mmHg 88%
16:00 -1°C° 0 mm 3 mps 745 mmHg 89%
17:00 -3°C° 0 mm 4 mps 745 mmHg 90%
18:00 -3°C° 0 mm 4 mps 745 mmHg 92%
19:00 -3°C° 0 mm 4 mps 745 mmHg 90%
20:00 -3°C° 0 mm 4 mps 745 mmHg 88%
21:00 -3°C° 0 mm 4 mps 745 mmHg 87%
22:00 -2°C° 0 mm 4 mps 745 mmHg 83%
23:00 -2°C° 0 mm 4 mps 745 mmHg 80%

25 January, Monday

Time Temperature Precipitation Wind Pressure Humidity
00:00 -2°C° 0 mm 4 mps 745 mmHg 77%
01:00 -2°C° 0 mm 4 mps 745 mmHg 76%
02:00 -2°C° 0 mm 4 mps 745 mmHg 76%
03:00 -2°C° 0 mm 4 mps 745 mmHg 76%
04:00 -1°C° 0 mm 3 mps 745 mmHg 76%
05:00 -1°C° 0 mm 3 mps 745 mmHg 77%
06:00 -1°C° 0 mm 3 mps 745 mmHg 77%
07:00 -1°C° 0 mm 3 mps 745 mmHg 76%
08:00 -1°C° 0 mm 3 mps 745 mmHg 74%
09:00 0°C° 0 mm 3 mps 746 mmHg 73%
10:00 +1°C° 0 mm 3 mps 745 mmHg 70%
11:00 +2°C° 0 mm 3 mps 745 mmHg 66%
12:00 +3°C° 0 mm 3 mps 745 mmHg 63%
13:00 +3°C° 0 mm 3 mps 744 mmHg 65%
14:00 +3°C° 0 mm 4 mps 744 mmHg 67%
15:00 +3°C° 0 mm 4 mps 743 mmHg 69%
16:00 +1°C° 0 mm 4 mps 743 mmHg 75%
17:00 0°C° 0 mm 4 mps 743 mmHg 80%
18:00 -1°C° 0 mm 5 mps 743 mmHg 85%
19:00 -1°C° 0 mm 5 mps 743 mmHg 84%
20:00 -1°C° 0 mm 5 mps 743 mmHg 84%
21:00 -3°C° 0 mm 6 mps 743 mmHg 83%
22:00 -3°C° 0 mm 6 mps 742 mmHg 84%
23:00 -3°C° 0 mm 6 mps 742 mmHg 86%
Show more